SCP
0 0 0 0 0 0 0 0 0 0 0 0 0 0 0 0 0 0 0 0 0 0 0 0 0 0 0 0 0 0 0 0 0 0 0 0 0 0 0 0 0 0 0 0 0 0 0 0 0 0 0 0 0 0
0 0 0 0 0 0 0 0 0 0 0 0 0 0 0 0 0 0 0 0 0 0 0 0 0 0 0 0 0 0 0 0 0 0 0 0 0 0 0 0 0 0 0 0 0 0 0 0 0 0 0 0 0 0
0 0 0 0 0 0 0 0 0 0 0 0 0 0 0 0 0 0 0 0 0 0 0 0 0 0 0 0 0 0 0 0 0 0 0 0 0 0 0 0 0 0 0 0 0 0 0 0 0 0 0 0 0 0
0 0 0 0 0 0 0 0 0 0 0 0 0 0 0 0 0 0 0 0 0 0 0 0 0 0 0 0 0 0 0 0 0 0 0 0 0 0 0 0 0 0 0 0 0 0 0 0 0 0 0 0 0 0
0 0 0 0 0 0 0 0 0 0 0 0 0 0 0 0 0 0 0 0 0 0 0 0 0 0 0 0 0 0 0 0 0 0 0 0 0 0 0 0 0 0 0 0 0 0 0 0 0 0 0 0 0 0
0 0 0 0 0 0 0 0 0 0 0 0 0 0 0 0 0 0 0 0 0 0 0 0 0 0 0 0 0 0 0 0 0 0 0 0 0 0 0 0 0 0 0 0 0 0 0 0 0 0 0 0 0 0
0 0 0 0 0 0 0 0 0 -0 -0 0 0 0 0 0 0 0 0 0 0 0 0 0 -0 0 0 0 0 0 0 0 0 0 0 0 0 0 0 0 0 0 0 0 0 0 0 0 0 0 0 0 0 0
0 0 0 0 0 0 0 0 0 0 0 0 0 0 0 0 0 0 -0 0 0 0 0 0 0 0 0 0 0 0 0 0 0 0 0 0 0 0 0 0 0 0 0 0 0 0 0 0 0 0 0 0 0 0
-0 -0 -0 0 0 0 0 0 0 0 0 0 0 0 0 0 0 0 0 0 0 0 0 0 0 0 0 0 0 0 0 0 0 0 0 0 0 0 0 0 0 0 0 0 0 0 0 0 0 0 0 0 0 0
0 0 0 0 0 0 0 0 0 0 0 0 0 0 0 0 -0 0 0 0 0 -0 0 0 0 0 0 0 0 0 0 0 0 0 0 0 0 0 0 0 0 0 0 0 0 0 0 0 0 0 0 0 0 0
-0 -0 -0 -0 -0 -0 -0 -0 0 0 0 0 0 0 -0 0 0 -0 0 0 0 0 0 0 0 0 0 0 0 0 0 0 0 0 0 0 0 0 0 0 0 0 0 0 0 0 0 0 0 0 0 0 0 0
-0 0 -0 -0 -0 -0 -0 0 -0 0 0 0 0 0 0 0 0 0 0 0 0 0 0 0 0 0 0 0 0 0 0 0 0 0 0 -0 0 0 0 0 0 0 0 0 0 0 0 0 0 0 0 0 0 0
0 0 -0 0 0 -0 -0 -0 0 0 0 0 0 0 0 0 0 0 0 0 0 0 -0 0 0 0 0 0 0 0 0 0 0 0 -0 0 0 -0 -0 0 0 0 0 -0 -0 -0 0 0 0 0 0 0 0 0
0 0 0 0 0 0 -0 -0 -0 0 0 0 0 0 0 0 0 0 0 0 0 0 -0 -0 0 0 0 0 0 0 -0 -0 -0 -0 0 -0 -0 0 0 -0 0 0 0 -0 -0 -0 -0 -0 0 0 0 0 0 0
0 0 0 0 0 0 0 -0 -0 0 0 0 0 0 0 0 0 0 0 0 0 0 -0 -0 0 0 0 0 -0 -0 -0 0 -0 0 -0 -0 0 0 0 -0 -0 -0 0 0 -0 -0 -0 -0 0 0 0 0 0 0
0 0 0 0 0 0 0 0 0 0 0 0 0 0 0 0 0 0 -0 -0 -0 -0 0 0 -0 -0 -0 -0 -0 -0 0 0 -0 -0 0 0 0 0 -0 -0 0 -0 -0 -0 -0 -0 -0 -0 0 0 0 0 0 0
-0 0 -0 -0 -0 -0 0 0 0 0 0 0 0 0 0 0 0 -0 -0 -0 -0 -0 0 -0 -0 -0 -0 -0 -0 -0 0 -0 -0 0 0 0 0 -0 -0 -0 -0 -0 -0 -0 -0 -0 -0 -0 -0 0 0 0 0 0
0 0 -0 0 0 0 0 0 0 0 -0 -0 -0 0 0 -0 -0 -0 -0 -0 -0 -0 -0 0 -0 -0 -0 -0 0 0 -0 -0 0 0 0 0 -0 -0 -0 -0 -0 -0 -0 -0 -0 -0 -0 -0 -0 0 0 0 0 0
0 0 0 0 0 0 0 0 0 -0 -0 -0 -0 -0 -0 -0 -0 -0 -0 -0 -0 -0 -0 -0 -0 -0 -0 0 0 -0 0 0 0 0 0 0 -0 -0 -0 -0 -0 0 0 0 0 0 0 -0 -0 -0 0 0 0 0
0 0 0 0 -0 0 0 0 -0 0 0 -0 -0 -0 -0 -0 -0 -0 -0 -0 -0 0 0 -0 0 0 -0 0 0 0 0 0 0 -0 0 0 0 0 0 0 0 -0 0 0 0 -0 -0 -0 -0 -0 0 0 0 0
0 0 -0 -0 -0 -0 0 0 0 0 0 -0 -0 -0 -0 -0 -0 0 0 0 0 -0 0 0 0 0 0 0 0 0 0 0 0 -0 0 0 0 0 -0 -0 0 -0 -0 0 0 0 -0 -0 -0 0 0 0 -0 -0
0 0 0 0 0 0 0 0 0 -0 0 0 0 0 0 0 0 0 0 0 0 0 0 0 0 0 0 -0 0 0 0 -0 -0 -0 -0 -0 0 0 0 0 0 -0 0 -0 0 -0 -0 0 0 -0 -0 -0 -0 -0
0 0 0 0 0 0 0 -0 0 0 0 0 0 0 0 0 0 0 0 0 0 0 0 0 0 -0 0 -0 -0 -0 -0 -0 -0 0 0 0 -0 0 -0 -0 -0 -0 -0 -0 -0 -0 0 0 0 0 -0 -0 -0 -0
-0 0 0 0 0 0 0 0 0 0 0 0 0 0 0 0 0 0 0 0 0 0 0 0 0 0 0 -0 -0 -0 -0 0 0 0 0 0 0 0 0 -0 0 -0 -0 -0 -0 0 0 0 0 0 0 -0 -0 0
0 0 0 0 0 0 0 0 0 0 0 0 0 0 0 0 0 0 0 0 0 0 -0 0 0 -0 -0 -0 -0 0 0 0 0 -0 0 0 -0 -0 -0 -0 -0 0 0 0 0 0 0 0 0 0 -0 -0 -0 -0
0 0 0 0 0 0 0 0 0 0 0 0 0 0 0 0 0 0 0 0 0 0 0 0 -0 0 0 0 0 0 0 0 0 0 0 -0 -0 0 0 0 0 0 0 0 0 0 0 0 0 0 0 0 0 0
0 0 0 0 0 0 0 0 0 0 0 0 0 0 0 0 0 0 -0 0 0 0 0 0 0 0 0 0 0 0 0 0 0 0 -0 0 -0 -0 0 0 -0 -0 0 0 0 0 0 0 0 0 0 0 0 0
0 0 0 0 0 0 0 0 0 0 0 0 0 0 0 0 0 0 0 -0 -0 0 -0 -0 0 0 -0 -0 -0 -0 -0 -0 -0 0 -0 0 0 0 0 -0 0 0 0 0 0 0 0 0 0 0 0 0 0 0
0 0 0 0 0 0 0 0 0 0 0 -0 0 0 0 -0 -0 -0 -0 -0 -0 -0 -0 0 -0 -0 0 0 -0 -0 -0 -0 -0 -0 -0 0 0 0 0 -0 0 0 0 0 0 0 0 0 0 0 0 0 0 0
0 0 0 0 0 0 0 -0 0 -0 -0 -0 -0 -0 -0 -0 -0 0 0 -0 -0 -0 -0 -0 0 0 0 0 -0 0 0 0 0 0 0 0 0 0 0 0 0 0 0 0 0 0 0 0 0 0 0 0 0 0
-0 -0 0 -0 -0 -0 -0 0 0 0 0 0 0 0 0 0 0 0 0 -0 -0 0 0 -0 0 0 0 0 0 0 0 0 0 0 0 0 0 0 0 0 0 0 0 0 0 0 0 0 0 0 0 0 0 0
-0 -0 0 0 0 -0 -0 -0 -0 0 0 0 0 0 0 0 0 0 0 0 0 0 0 0 0 0 0 0 0 0 0 0 0 0 0 0 0 0 0 0 0 0 0 -0 0 0 0 0 0 0 0 0 0 0
0 0 0 0 0 0 0 0 0 0 0 0 0 0 -0 -0 -0 -0 -0 0 0 0 0 0 0 0 0 0 0 0 0 0 0 0 0 0 0 0 0 0 0 0 -0 0 0 0 0 0 0 0 0 0 0 0
Wind_Speed_500mb
45 42 38 39 41 40 38 36 38 52 45 38 33 33 31 30 25 24 25 30 28 18 46 43 42 29 29 22 9 32 16 10 10 3 9 8 10 13 15 20 16 18 9 13 4 6 30 8 12 10 4 30 22 22
45 43 43 42 39 40 43 41 33 31 39 35 33 33 27 30 28 25 26 23 23 38 32 29 37 33 31 33 33 19 14 18 7 5 8 8 7 4 12 26 14 21 13 11 21 18 25 44 29 57 28 25 34 22
47 45 46 45 41 39 36 39 36 35 34 33 35 32 29 27 28 31 29 22 21 30 48 56 61 51 49 53 39 21 13 4 12 14 5 6 8 7 5 8 9 11 19 2 7 9 15 32 47 29 33 17 18 35
45 43 42 41 40 38 37 38 40 39 35 29 28 29 22 21 22 28 31 23 23 19 12 25 33 37 30 30 41 46 55 50 40 19 12 6 5 10 5 8 12 10 18 9 9 10 14 28 31 15 13 19 9 14
38 40 40 42 42 42 38 37 36 37 35 35 30 24 20 24 29 27 33 33 39 25 11 26 47 38 37 32 28 46 45 52 36 15 10 8 9 10 15 13 31 11 7 4 7 15 16 18 19 23 24 26 27 24
40 41 41 43 41 37 37 39 35 32 32 34 34 28 24 25 25 20 10 12 32 34 15 7 14 31 51 46 45 44 55 50 56 37 15 28 46 23 8 17 62 48 40 38 33 39 25 21 24 25 17 16 20 21
36 34 34 36 40 41 38 37 36 34 32 29 29 28 28 26 34 34 10 17 8 21 11 11 11 14 31 50 46 47 45 45 46 45 33 44 35 23 15 40 25 47 50 55 58 53 35 23 25 30 38 27 28 43
38 39 41 42 43 41 37 38 35 36 37 36 32 27 26 29 28 45 41 32 10 12 13 6 7 15 18 20 16 36 36 43 34 40 23 25 26 29 23 40 52 56 58 60 61 64 67 44 37 40 42 44 34 39
33 34 32 34 31 33 32 29 27 31 33 33 32 29 27 29 24 34 11 16 25 20 7 7 6 6 4 27 15 3 19 8 24 8 20 14 14 19 16 34 49 54 61 61 59 65 67 55 40 49 36 25 39 35
34 35 37 35 34 33 33 34 32 31 36 42 30 15 11 16 17 12 13 11 17 15 14 11 12 11 15 8 6 11 16 7 5 10 19 16 32 71 86 92 76 55 61 64 64 59 48 45 54 63 50 35 42 65
30 28 31 38 43 41 39 38 32 46 52 41 19 15 16 7 26 12 12 13 18 10 18 18 41 27 28 11 6 5 1 5 5 8 9 8 20 36 82 96 105 99 83 65 53 53 56 56 52 36 35 53 71 79
23 25 25 29 32 38 33 37 52 59 54 38 14 12 17 13 11 7 6 8 10 9 20 17 27 40 19 23 5 3 5 6 11 7 6 9 17 49 64 69 79 77 83 80 66 56 44 47 51 44 7 78 88 91
19 22 23 20 29 45 41 49 55 50 31 26 10 8 10 10 10 12 13 8 7 12 17 24 11 26 19 12 6 6 8 11 11 7 8 10 34 51 61 58 29 48 57 59 55 55 38 50 44 23 72 86 81 80
13 20 23 23 34 47 50 54 62 35 27 10 9 8 8 8 11 11 14 15 26 22 30 28 8 7 8 10 6 7 9 7 9 9 13 10 17 23 9 22 17 22 36 41 46 55 47 42 26 53 53 62 72 74
18 22 28 32 30 39 51 61 53 27 7 5 8 8 13 23 27 29 12 21 7 12 28 11 3 8 6 2 4 6 8 11 10 8 4 23 11 45 33 26 27 24 30 38 45 47 49 53 61 58 65 68 71 68
28 25 18 36 48 53 49 54 55 18 6 6 11 8 25 19 22 31 15 15 11 22 9 9 4 6 7 6 11 14 8 10 7 8 14 1 18 19 20 40 20 21 30 41 39 48 53 57 60 64 63 64 49 27
22 16 26 35 47 46 42 38 23 9 8 9 16 30 35 35 31 30 22 12 9 6 6 4 8 11 6 7 8 11 10 9 11 15 18 22 28 39 45 44 41 49 48 45 48 50 51 45 42 44 33 37 47 54
15 22 30 41 50 50 34 17 14 11 14 19 15 26 34 35 32 28 16 6 11 9 10 6 6 7 8 8 6 7 29 21 27 24 27 28 35 43 51 53 44 32 22 17 21 25 28 39 40 48 56 55 45 40
20 31 41 52 53 21 13 12 11 8 16 22 30 33 29 28 31 31 29 29 29 23 8 8 8 5 6 12 23 41 22 25 27 28 31 31 32 35 42 45 40 38 36 30 40 48 50 48 50 52 56 50 46 44
27 27 44 42 27 7 7 9 14 11 10 10 22 24 18 21 29 39 54 28 29 19 8 6 7 18 35 11 9 19 27 29 31 33 34 33 32 28 26 35 23 25 30 34 31 28 32 40 42 42 39 33 42 39
26 35 44 39 17 13 9 8 12 11 12 11 16 22 13 24 20 29 20 36 9 8 7 27 44 18 5 10 19 21 19 23 35 38 33 27 24 31 42 31 35 40 36 37 45 42 36 35 35 29 25 35 35 28
19 35 27 23 7 10 14 17 10 7 9 11 10 4 7 5 8 9 11 8 5 6 7 10 19 10 14 22 23 24 25 23 24 27 29 30 34 32 29 24 21 24 26 25 30 32 27 23 22 31 33 30 22 22
32 27 9 14 11 7 10 10 7 5 4 8 11 2 3 4 3 4 4 6 8 25 28 19 21 24 25 32 30 47 44 29 25 19 9 18 19 27 22 22 21 26 27 25 23 26 26 23 24 24 24 24 34 27
13 7 7 6 9 7 8 6 6 6 5 3 3 3 3 1 4 6 1 6 12 12 11 8 12 12 11 19 15 21 24 22 21 26 17 12 15 17 22 19 22 17 17 24 28 24 26 24 23 21 16 22 33 23
6 7 6 10 8 6 6 5 5 4 5 4 4 3 4 8 3 5 6 6 19 24 22 24 21 13 23 22 17 26 14 13 26 21 12 16 22 21 32 41 29 16 15 23 27 22 22 21 21 18 9 17 30 31
10 11 11 9 9 7 7 4 5 5 6 6 8 7 16 6 5 8 3 16 7 1 17 24 36 19 29 28 26 22 20 12 11 12 17 17 12 15 19 19 13 13 9 14 22 19 20 17 15 18 13 11 13 13
8 11 18 17 8 7 7 12 15 7 7 3 1 3 6 6 8 6 31 10 1 16 18 20 22 21 26 19 12 15 14 8 2 10 15 6 5 7 9 7 8 8 8 14 15 7 21 22 24 21 17 18 17 13
21 13 11 18 16 20 6 5 6 4 3 3 8 8 6 7 5 15 14 13 16 19 21 14 11 18 14 11 15 14 11 11 8 12 5 8 6 5 7 12 10 13 9 12 13 9 16 15 14 25 29 24 21 22
19 16 26 17 13 12 21 9 5 4 13 19 13 13 10 21 27 22 20 16 14 14 15 22 19 4 2 10 14 15 13 11 9 6 9 14 8 13 15 10 9 8 12 17 17 13 12 18 19 11 16 19 25 30
22 21 39 34 15 8 18 27 36 39 50 51 45 40 39 42 36 22 19 22 30 28 18 20 19 15 20 9 11 10 17 19 2 5 3 11 9 1 11 6 8 7 7 9 4 3 2 4 10 8 12 14 22 19
30 34 41 19 10 27 34 42 42 41 43 41 38 37 33 32 31 34 31 23 22 18 16 23 20 10 10 12 15 14 11 7 15 21 20 14 5 5 4 7 12 6 6 13 3 6 7 7 8 12 11 4 12 14
15 22 26 21 21 26 33 28 27 35 33 25 27 32 22 19 15 25 24 24 18 18 14 16 16 19 14 11 12 9 6 5 5 3 6 8 4 4 2 6 9 10 10 7 4 7 2 6 1 8 13 15 18 17
20 24 23 21 23 34 30 25 31 26 25 25 19 15 23 24 12 8 15 12 16 13 13 11 7 10 14 15 18 23 18 19 20 19 16 12 9 10 13 13 15 19 22 27 9 12 8 9 12 10 12 21 22 27
Wind_Direction_500mb
261 262 263 267 265 262 264 266 261 250 251 254 242 243 247 252 253 253 251 205 238 258 266 274 296 300 304 314 341 339 337 10 326 298 214 230 245 224 254 253 246 243 227 227 51 336 263 17 49 158 226 305 191 169
256 256 261 262 262 261 258 257 256 249 238 238 242 242 245 242 246 230 258 203 236 256 259 258 266 251 252 262 298 314 301 315 11 359 12 326 298 254 234 256 249 258 201 207 194 236 232 265 266 290 293 309 314 195
253 258 260 259 256 253 252 247 243 240 244 247 240 237 252 236 208 218 243 213 241 258 277 269 266 268 271 257 246 264 288 352 59 25 335 286 279 351 268 281 333 324 22 236 97 321 316 308 274 268 276 284 279 329
256 253 253 250 249 251 251 242 241 244 241 239 242 232 234 233 228 226 240 234 237 279 272 269 259 275 291 268 249 246 251 265 286 288 257 233 268 307 270 299 291 256 352 321 270 298 323 330 340 14 335 256 311 247
252 252 247 247 251 248 244 242 241 238 235 232 237 235 241 224 227 244 254 234 210 242 303 304 285 267 255 251 248 243 246 242 259 253 227 223 236 259 263 271 259 190 220 195 229 309 228 254 272 319 316 301 280 202
245 247 250 249 245 242 246 241 234 231 229 230 226 226 225 213 210 210 276 250 224 237 278 285 301 273 262 249 240 252 230 230 231 237 242 250 245 283 263 254 256 258 264 268 270 296 274 252 274 290 309 314 272 220
250 250 250 246 243 242 239 232 228 229 225 224 224 215 216 218 202 194 182 145 37 204 246 279 259 286 260 235 241 246 247 220 217 231 232 244 251 255 247 251 264 264 267 273 280 290 279 265 269 278 292 283 211 198
256 254 251 249 247 244 231 225 231 229 225 221 213 203 213 221 220 237 218 253 268 227 227 263 264 271 251 202 219 239 242 242 236 226 234 226 243 224 247 261 261 258 259 262 264 264 264 264 263 283 288 251 233 188
253 252 243 247 240 223 219 225 234 232 216 202 186 191 209 219 226 243 245 207 239 233 277 238 268 281 276 201 210 128 211 225 241 223 234 235 231 230 247 243 243 238 233 241 248 252 261 253 261 267 258 249 210 195
252 249 245 239 231 228 223 226 229 216 191 176 170 159 196 214 188 182 179 204 203 218 224 239 260 266 317 260 191 201 204 205 231 229 218 227 243 245 247 251 255 254 242 242 248 256 254 238 249 260 262 226 168 155
248 245 244 235 229 228 221 220 206 180 171 162 169 199 186 218 171 205 187 207 200 211 215 235 227 243 265 272 236 191 46 308 268 243 206 242 250 241 248 249 250 247 243 239 230 246 256 257 260 247 245 187 162 174
240 233 230 228 226 207 202 192 182 179 170 165 144 191 178 168 189 188 204 233 220 228 190 198 215 209 230 231 220 109 249 198 253 248 236 252 258 257 256 258 255 250 238 235 237 246 237 250 255 244 175 161 167 169
229 219 216 214 197 188 190 177 180 159 153 171 222 184 194 184 191 202 199 193 236 202 246 198 205 185 201 198 159 175 231 238 293 237 239 260 280 273 273 272 275 246 229 218 219 229 247 252 229 217 170 169 159 156
185 184 181 174 167 164 169 173 161 166 174 167 200 203 217 189 231 199 227 211 212 251 310 0 237 173 151 167 151 211 233 261 248 245 247 299 13 319 178 140 64 163 187 205 227 218 208 187 221 179 164 157 156 156
160 163 158 159 178 177 167 169 167 172 165 225 223 231 225 239 254 257 246 282 295 280 316 18 304 103 20 108 212 239 237 236 247 263 349 303 329 233 253 184 185 192 204 218 217 219 209 195 169 161 156 157 156 152
136 125 139 172 152 154 160 168 184 191 262 249 235 256 259 278 275 287 267 267 308 332 298 165 147 136 187 216 201 215 244 234 287 303 185 98 52 95 145 198 200 145 126 121 128 130 131 137 133 135 137 143 156 167
132 147 160 152 152 154 158 161 174 201 233 234 239 233 252 272 276 296 314 348 360 304 221 153 199 188 162 230 217 210 216 220 216 94 88 91 95 107 112 113 114 120 115 115 120 124 132 139 144 164 160 159 156 167
137 153 158 154 152 147 156 164 180 227 243 240 251 264 265 277 283 284 279 338 350 315 154 238 177 206 220 234 227 228 237 217 90 87 91 103 103 103 109 111 107 103 107 109 123 122 155 149 141 145 155 153 147 152
137 152 154 152 149 141 165 197 225 258 254 272 268 272 285 282 271 275 274 289 292 250 264 236 244 216 248 247 248 264 106 97 100 97 104 109 105 102 108 105 107 111 111 124 140 143 145 152 151 154 154 153 152 162
133 149 159 148 170 230 224 216 204 244 255 255 284 287 285 275 279 281 291 263 268 179 181 245 217 238 243 32 97 118 125 122 116 108 106 107 110 113 107 125 117 104 105 110 111 129 146 155 153 157 167 172 166 172
138 141 157 174 232 275 257 232 225 242 262 264 282 295 280 289 281 273 219 150 135 193 209 220 229 274 40 94 103 116 132 141 128 117 114 114 106 110 114 118 116 122 141 143 133 132 138 147 158 165 183 173 176 178
170 162 169 199 267 252 248 233 237 261 246 251 264 209 275 271 294 56 116 185 225 269 297 52 86 75 96 73 80 123 133 129 126 126 127 126 119 121 141 133 139 133 139 143 140 142 154 161 168 175 176 182 183 198
154 170 208 214 244 265 271 296 265 252 270 318 328 266 239 280 3 28 48 4 48 103 103 95 121 90 97 95 114 127 139 133 139 128 126 136 136 150 146 139 142 140 154 155 155 163 160 165 178 189 203 213 190 184
183 223 236 242 227 266 302 266 263 275 265 271 264 254 158 137 49 41 33 66 168 130 105 107 101 104 100 106 105 104 124 125 125 125 154 136 141 121 152 150 145 159 163 167 182 171 155 173 181 181 211 174 182 190
244 239 223 241 236 245 244 245 227 245 254 225 250 170 177 170 128 27 36 200 72 67 104 104 51 36 115 110 113 68 48 55 127 119 85 119 132 128 84 116 117 126 143 146 130 168 166 174 180 178 189 206 185 188
220 220 208 217 191 213 220 250 225 241 246 225 210 186 163 188 115 102 109 103 154 30 22 68 112 87 75 88 88 70 64 102 97 78 108 135 117 122 138 148 139 133 124 136 163 173 160 171 188 206 202 207 211 203
243 230 217 218 231 213 244 256 262 257 252 330 257 186 170 80 68 74 131 155 150 89 83 85 93 105 76 85 85 56 55 109 110 118 79 101 125 167 141 118 195 162 170 165 172 197 198 197 198 218 230 236 239 251
230 235 221 182 201 220 279 237 223 228 248 198 30 28 47 50 88 143 148 141 125 103 113 76 118 77 75 52 88 60 57 71 83 88 97 129 142 76 163 183 199 212 201 178 194 222 180 214 248 233 229 240 256 268
206 227 186 160 187 194 203 206 141 164 74 96 98 83 87 115 131 136 135 151 124 115 144 96 85 83 18 58 78 37 74 73 57 50 35 111 29 69 169 160 64 153 141 172 212 232 229 202 230 212 209 228 245 262
82 79 70 72 76 38 47 90 83 89 90 90 96 96 84 66 73 98 110 86 88 79 83 74 82 65 54 37 352 348 24 36 266 190 140 7 285 39 55 67 82 98 158 120 295 232 102 224 234 254 243 255 258 255
93 102 113 106 85 95 96 97 96 92 94 97 95 89 98 101 76 71 71 76 94 73 81 53 60 62 65 46 34 27 33 65 41 94 93 83 21 328 192 53 52 105 174 163 125 185 231 248 298 284 244 336 352 297
106 98 104 111 112 123 119 117 105 109 103 96 98 111 107 98 70 45 37 47 59 66 68 67 69 61 50 56 52 43 349 343 321 12 118 144 166 97 223 260 282 310 330 207 350 112 166 40 121 339 356 348 357 348
126 125 123 115 112 119 129 118 107 98 105 100 89 99 104 89 87 77 58 46 46 46 58 56 40 38 54 59 33 45 57 63 64 65 72 72 63 38 21 7 6 346 9 46 122 42 339 348 335 330 328 351 318 312
Wind_Speed_850mb
45 42 38 39 41 40 38 36 38 52 45 38 33 33 31 30 25 24 25 30 28 18 46 43 42 29 29 22 9 32 16 10 10 3 9 8 10 13 15 20 16 18 9 13 4 6 30 8 12 10 4 30 22 22
45 43 43 42 39 40 43 41 33 31 39 35 33 33 27 30 28 25 26 23 23 38 32 29 37 33 31 33 33 19 14 18 7 5 8 8 7 4 12 26 14 21 13 11 21 18 25 44 29 57 28 25 34 22
47 45 46 45 41 39 36 39 36 35 34 33 35 32 29 27 28 31 29 22 21 30 48 56 61 51 49 53 39 21 13 4 12 14 5 6 8 7 5 8 9 11 19 2 7 9 15 32 47 29 33 17 18 35
45 43 42 41 40 38 37 38 40 39 35 29 28 29 22 21 22 28 31 23 23 19 12 25 33 37 30 30 41 46 55 50 40 19 12 6 5 10 5 8 12 10 18 9 9 10 14 28 31 15 13 19 9 14
38 40 40 42 42 42 38 37 36 37 35 35 30 24 20 24 29 27 33 33 39 25 11 26 47 38 37 32 28 46 45 52 36 15 10 8 9 10 15 13 31 11 7 4 7 15 16 18 19 23 24 26 27 24
40 41 41 43 41 37 37 39 35 32 32 34 34 28 24 25 25 20 10 12 32 34 15 7 14 31 51 46 45 44 55 50 56 37 15 28 46 23 8 17 62 48 40 38 33 39 25 21 24 25 17 16 20 21
36 34 34 36 40 41 38 37 36 34 32 29 29 28 28 26 34 34 10 17 8 21 11 11 11 14 31 50 46 47 45 45 46 45 33 44 35 23 15 40 25 47 50 55 58 53 35 23 25 30 38 27 28 43
38 39 41 42 43 41 37 38 35 36 37 36 32 27 26 29 28 45 41 32 10 12 13 6 7 15 18 20 16 36 36 43 34 40 23 25 26 29 23 40 52 56 58 60 61 64 67 44 37 40 42 44 34 39
33 34 32 34 31 33 32 29 27 31 33 33 32 29 27 29 24 34 11 16 25 20 7 7 6 6 4 27 15 3 19 8 24 8 20 14 14 19 16 34 49 54 61 61 59 65 67 55 40 49 36 25 39 35
34 35 37 35 34 33 33 34 32 31 36 42 30 15 11 16 17 12 13 11 17 15 14 11 12 11 15 8 6 11 16 7 5 10 19 16 32 71 86 92 76 55 61 64 64 59 48 45 54 63 50 35 42 65
30 28 31 38 43 41 39 38 32 46 52 41 19 15 16 7 26 12 12 13 18 10 18 18 41 27 28 11 6 5 1 5 5 8 9 8 20 36 82 96 105 99 83 65 53 53 56 56 52 36 35 53 71 79
23 25 25 29 32 38 33 37 52 59 54 38 14 12 17 13 11 7 6 8 10 9 20 17 27 40 19 23 5 3 5 6 11 7 6 9 17 49 64 69 79 77 83 80 66 56 44 47 51 44 7 78 88 91
19 22 23 20 29 45 41 49 55 50 31 26 10 8 10 10 10 12 13 8 7 12 17 24 11 26 19 12 6 6 8 11 11 7 8 10 34 51 61 58 29 48 57 59 55 55 38 50 44 23 72 86 81 80
13 20 23 23 34 47 50 54 62 35 27 10 9 8 8 8 11 11 14 15 26 22 30 28 8 7 8 10 6 7 9 7 9 9 13 10 17 23 9 22 17 22 36 41 46 55 47 42 26 53 53 62 72 74
18 22 28 32 30 39 51 61 53 27 7 5 8 8 13 23 27 29 12 21 7 12 28 11 3 8 6 2 4 6 8 11 10 8 4 23 11 45 33 26 27 24 30 38 45 47 49 53 61 58 65 68 71 68
28 25 18 36 48 53 49 54 55 18 6 6 11 8 25 19 22 31 15 15 11 22 9 9 4 6 7 6 11 14 8 10 7 8 14 1 18 19 20 40 20 21 30 41 39 48 53 57 60 64 63 64 49 27
22 16 26 35 47 46 42 38 23 9 8 9 16 30 35 35 31 30 22 12 9 6 6 4 8 11 6 7 8 11 10 9 11 15 18 22 28 39 45 44 41 49 48 45 48 50 51 45 42 44 33 37 47 54
15 22 30 41 50 50 34 17 14 11 14 19 15 26 34 35 32 28 16 6 11 9 10 6 6 7 8 8 6 7 29 21 27 24 27 28 35 43 51 53 44 32 22 17 21 25 28 39 40 48 56 55 45 40
20 31 41 52 53 21 13 12 11 8 16 22 30 33 29 28 31 31 29 29 29 23 8 8 8 5 6 12 23 41 22 25 27 28 31 31 32 35 42 45 40 38 36 30 40 48 50 48 50 52 56 50 46 44
27 27 44 42 27 7 7 9 14 11 10 10 22 24 18 21 29 39 54 28 29 19 8 6 7 18 35 11 9 19 27 29 31 33 34 33 32 28 26 35 23 25 30 34 31 28 32 40 42 42 39 33 42 39
26 35 44 39 17 13 9 8 12 11 12 11 16 22 13 24 20 29 20 36 9 8 7 27 44 18 5 10 19 21 19 23 35 38 33 27 24 31 42 31 35 40 36 37 45 42 36 35 35 29 25 35 35 28
19 35 27 23 7 10 14 17 10 7 9 11 10 4 7 5 8 9 11 8 5 6 7 10 19 10 14 22 23 24 25 23 24 27 29 30 34 32 29 24 21 24 26 25 30 32 27 23 22 31 33 30 22 22
32 27 9 14 11 7 10 10 7 5 4 8 11 2 3 4 3 4 4 6 8 25 28 19 21 24 25 32 30 47 44 29 25 19 9 18 19 27 22 22 21 26 27 25 23 26 26 23 24 24 24 24 34 27
13 7 7 6 9 7 8 6 6 6 5 3 3 3 3 1 4 6 1 6 12 12 11 8 12 12 11 19 15 21 24 22 21 26 17 12 15 17 22 19 22 17 17 24 28 24 26 24 23 21 16 22 33 23
6 7 6 10 8 6 6 5 5 4 5 4 4 3 4 8 3 5 6 6 19 24 22 24 21 13 23 22 17 26 14 13 26 21 12 16 22 21 32 41 29 16 15 23 27 22 22 21 21 18 9 17 30 31
10 11 11 9 9 7 7 4 5 5 6 6 8 7 16 6 5 8 3 16 7 1 17 24 36 19 29 28 26 22 20 12 11 12 17 17 12 15 19 19 13 13 9 14 22 19 20 17 15 18 13 11 13 13
8 11 18 17 8 7 7 12 15 7 7 3 1 3 6 6 8 6 31 10 1 16 18 20 22 21 26 19 12 15 14 8 2 10 15 6 5 7 9 7 8 8 8 14 15 7 21 22 24 21 17 18 17 13
21 13 11 18 16 20 6 5 6 4 3 3 8 8 6 7 5 15 14 13 16 19 21 14 11 18 14 11 15 14 11 11 8 12 5 8 6 5 7 12 10 13 9 12 13 9 16 15 14 25 29 24 21 22
19 16 26 17 13 12 21 9 5 4 13 19 13 13 10 21 27 22 20 16 14 14 15 22 19 4 2 10 14 15 13 11 9 6 9 14 8 13 15 10 9 8 12 17 17 13 12 18 19 11 16 19 25 30
22 21 39 34 15 8 18 27 36 39 50 51 45 40 39 42 36 22 19 22 30 28 18 20 19 15 20 9 11 10 17 19 2 5 3 11 9 1 11 6 8 7 7 9 4 3 2 4 10 8 12 14 22 19
30 34 41 19 10 27 34 42 42 41 43 41 38 37 33 32 31 34 31 23 22 18 16 23 20 10 10 12 15 14 11 7 15 21 20 14 5 5 4 7 12 6 6 13 3 6 7 7 8 12 11 4 12 14
15 22 26 21 21 26 33 28 27 35 33 25 27 32 22 19 15 25 24 24 18 18 14 16 16 19 14 11 12 9 6 5 5 3 6 8 4 4 2 6 9 10 10 7 4 7 2 6 1 8 13 15 18 17
20 24 23 21 23 34 30 25 31 26 25 25 19 15 23 24 12 8 15 12 16 13 13 11 7 10 14 15 18 23 18 19 20 19 16 12 9 10 13 13 15 19 22 27 9 12 8 9 12 10 12 21 22 27
Wind_Direction_850mb
261 262 263 267 265 262 264 266 261 250 251 254 242 243 247 252 253 253 251 205 238 258 266 274 296 300 304 314 341 339 337 10 326 298 214 230 245 224 254 253 246 243 227 227 51 336 263 17 49 158 226 305 191 169
256 256 261 262 262 261 258 257 256 249 238 238 242 242 245 242 246 230 258 203 236 256 259 258 266 251 252 262 298 314 301 315 11 359 12 326 298 254 234 256 249 258 201 207 194 236 232 265 266 290 293 309 314 195
253 258 260 259 256 253 252 247 243 240 244 247 240 237 252 236 208 218 243 213 241 258 277 269 266 268 271 257 246 264 288 352 59 25 335 286 279 351 268 281 333 324 22 236 97 321 316 308 274 268 276 284 279 329
256 253 253 250 249 251 251 242 241 244 241 239 242 232 234 233 228 226 240 234 237 279 272 269 259 275 291 268 249 246 251 265 286 288 257 233 268 307 270 299 291 256 352 321 270 298 323 330 340 14 335 256 311 247
252 252 247 247 251 248 244 242 241 238 235 232 237 235 241 224 227 244 254 234 210 242 303 304 285 267 255 251 248 243 246 242 259 253 227 223 236 259 263 271 259 190 220 195 229 309 228 254 272 319 316 301 280 202
245 247 250 249 245 242 246 241 234 231 229 230 226 226 225 213 210 210 276 250 224 237 278 285 301 273 262 249 240 252 230 230 231 237 242 250 245 283 263 254 256 258 264 268 270 296 274 252 274 290 309 314 272 220
250 250 250 246 243 242 239 232 228 229 225 224 224 215 216 218 202 194 182 145 37 204 246 279 259 286 260 235 241 246 247 220 217 231 232 244 251 255 247 251 264 264 267 273 280 290 279 265 269 278 292 283 211 198
256 254 251 249 247 244 231 225 231 229 225 221 213 203 213 221 220 237 218 253 268 227 227 263 264 271 251 202 219 239 242 242 236 226 234 226 243 224 247 261 261 258 259 262 264 264 264 264 263 283 288 251 233 188
253 252 243 247 240 223 219 225 234 232 216 202 186 191 209 219 226 243 245 207 239 233 277 238 268 281 276 201 210 128 211 225 241 223 234 235 231 230 247 243 243 238 233 241 248 252 261 253 261 267 258 249 210 195
252 249 245 239 231 228 223 226 229 216 191 176 170 159 196 214 188 182 179 204 203 218 224 239 260 266 317 260 191 201 204 205 231 229 218 227 243 245 247 251 255 254 242 242 248 256 254 238 249 260 262 226 168 155
248 245 244 235 229 228 221 220 206 180 171 162 169 199 186 218 171 205 187 207 200 211 215 235 227 243 265 272 236 191 46 308 268 243 206 242 250 241 248 249 250 247 243 239 230 246 256 257 260 247 245 187 162 174
240 233 230 228 226 207 202 192 182 179 170 165 144 191 178 168 189 188 204 233 220 228 190 198 215 209 230 231 220 109 249 198 253 248 236 252 258 257 256 258 255 250 238 235 237 246 237 250 255 244 175 161 167 169
229 219 216 214 197 188 190 177 180 159 153 171 222 184 194 184 191 202 199 193 236 202 246 198 205 185 201 198 159 175 231 238 293 237 239 260 280 273 273 272 275 246 229 218 219 229 247 252 229 217 170 169 159 156
185 184 181 174 167 164 169 173 161 166 174 167 200 203 217 189 231 199 227 211 212 251 310 0 237 173 151 167 151 211 233 261 248 245 247 299 13 319 178 140 64 163 187 205 227 218 208 187 221 179 164 157 156 156
160 163 158 159 178 177 167 169 167 172 165 225 223 231 225 239 254 257 246 282 295 280 316 18 304 103 20 108 212 239 237 236 247 263 349 303 329 233 253 184 185 192 204 218 217 219 209 195 169 161 156 157 156 152
136 125 139 172 152 154 160 168 184 191 262 249 235 256 259 278 275 287 267 267 308 332 298 165 147 136 187 216 201 215 244 234 287 303 185 98 52 95 145 198 200 145 126 121 128 130 131 137 133 135 137 143 156 167
132 147 160 152 152 154 158 161 174 201 233 234 239 233 252 272 276 296 314 348 360 304 221 153 199 188 162 230 217 210 216 220 216 94 88 91 95 107 112 113 114 120 115 115 120 124 132 139 144 164 160 159 156 167
137 153 158 154 152 147 156 164 180 227 243 240 251 264 265 277 283 284 279 338 350 315 154 238 177 206 220 234 227 228 237 217 90 87 91 103 103 103 109 111 107 103 107 109 123 122 155 149 141 145 155 153 147 152
137 152 154 152 149 141 165 197 225 258 254 272 268 272 285 282 271 275 274 289 292 250 264 236 244 216 248 247 248 264 106 97 100 97 104 109 105 102 108 105 107 111 111 124 140 143 145 152 151 154 154 153 152 162
133 149 159 148 170 230 224 216 204 244 255 255 284 287 285 275 279 281 291 263 268 179 181 245 217 238 243 32 97 118 125 122 116 108 106 107 110 113 107 125 117 104 105 110 111 129 146 155 153 157 167 172 166 172
138 141 157 174 232 275 257 232 225 242 262 264 282 295 280 289 281 273 219 150 135 193 209 220 229 274 40 94 103 116 132 141 128 117 114 114 106 110 114 118 116 122 141 143 133 132 138 147 158 165 183 173 176 178
170 162 169 199 267 252 248 233 237 261 246 251 264 209 275 271 294 56 116 185 225 269 297 52 86 75 96 73 80 123 133 129 126 126 127 126 119 121 141 133 139 133 139 143 140 142 154 161 168 175 176 182 183 198
154 170 208 214 244 265 271 296 265 252 270 318 328 266 239 280 3 28 48 4 48 103 103 95 121 90 97 95 114 127 139 133 139 128 126 136 136 150 146 139 142 140 154 155 155 163 160 165 178 189 203 213 190 184
183 223 236 242 227 266 302 266 263 275 265 271 264 254 158 137 49 41 33 66 168 130 105 107 101 104 100 106 105 104 124 125 125 125 154 136 141 121 152 150 145 159 163 167 182 171 155 173 181 181 211 174 182 190
244 239 223 241 236 245 244 245 227 245 254 225 250 170 177 170 128 27 36 200 72 67 104 104 51 36 115 110 113 68 48 55 127 119 85 119 132 128 84 116 117 126 143 146 130 168 166 174 180 178 189 206 185 188
220 220 208 217 191 213 220 250 225 241 246 225 210 186 163 188 115 102 109 103 154 30 22 68 112 87 75 88 88 70 64 102 97 78 108 135 117 122 138 148 139 133 124 136 163 173 160 171 188 206 202 207 211 203
243 230 217 218 231 213 244 256 262 257 252 330 257 186 170 80 68 74 131 155 150 89 83 85 93 105 76 85 85 56 55 109 110 118 79 101 125 167 141 118 195 162 170 165 172 197 198 197 198 218 230 236 239 251
230 235 221 182 201 220 279 237 223 228 248 198 30 28 47 50 88 143 148 141 125 103 113 76 118 77 75 52 88 60 57 71 83 88 97 129 142 76 163 183 199 212 201 178 194 222 180 214 248 233 229 240 256 268
206 227 186 160 187 194 203 206 141 164 74 96 98 83 87 115 131 136 135 151 124 115 144 96 85 83 18 58 78 37 74 73 57 50 35 111 29 69 169 160 64 153 141 172 212 232 229 202 230 212 209 228 245 262
82 79 70 72 76 38 47 90 83 89 90 90 96 96 84 66 73 98 110 86 88 79 83 74 82 65 54 37 352 348 24 36 266 190 140 7 285 39 55 67 82 98 158 120 295 232 102 224 234 254 243 255 258 255
93 102 113 106 85 95 96 97 96 92 94 97 95 89 98 101 76 71 71 76 94 73 81 53 60 62 65 46 34 27 33 65 41 94 93 83 21 328 192 53 52 105 174 163 125 185 231 248 298 284 244 336 352 297
106 98 104 111 112 123 119 117 105 109 103 96 98 111 107 98 70 45 37 47 59 66 68 67 69 61 50 56 52 43 349 343 321 12 118 144 166 97 223 260 282 310 330 207 350 112 166 40 121 339 356 348 357 348
126 125 123 115 112 119 129 118 107 98 105 100 89 99 104 89 87 77 58 46 46 46 58 56 40 38 54 59 33 45 57 63 64 65 72 72 63 38 21 7 6 346 9 46 122 42 339 348 335 330 328 351 318 312